GSAT0223 (GALILEO 27)

Last updated on Wed Oct 29 2025 00:02:35 GMT+0000 (Coordinated Universal Time)

1 49809U 21116A 25300.69948985 -.00000069 00000+0 00000+0 0 9993 2 49809 57.2300 347.9594 0004430 231.1582 125.9553 1.70476312 24213
UTC large
Height (km)
Speed (km/s)
/
Latitude / Longitude
Inclination (degrees)
Orbital Period (minutes)
Azimuth
Elevation
Range (km)
Doppler Factor

Next 0 passes for location: London (51.5072 / 0.1276)

Sorry there are no passes over London.